This is the latest recevied weather packets stored in our database for station/object F4AMY-13. If no packets are shown the sender has not sent any weather packets the latest 10 day(s).
| Time | Temp. | Humidity | Pressure | Rain* | Wind** | Luminosity | Snow |
|---|---|---|---|---|---|---|---|
| 1777805872 | 20.56° C | 49% | 1017.3 hPa | 0 mm | 90.3 m/s, ° | 202 W/m² | - |
| 1777805572 | 20° C | 47% | 1017.2 hPa | 0 mm | 73.31 m/s, ° | 164 W/m² | - |
| 1777805272 | 20° C | 51% | 1017.3 hPa | 0 mm | 77.34 m/s, ° | 173 W/m² | - |
| 1777804972 | 19.44° C | 48% | 1017.5 hPa | 0 mm | 77.78 m/s, ° | 174 W/m² | - |
| 1777804672 | 19.44° C | 50% | 1017.5 hPa | 0 mm | 60.35 m/s, ° | 135 W/m² | - |
| 1777804372 | 19.44° C | 51% | 1017.4 hPa | 0 mm | 45.6 m/s, ° | 102 W/m² | - |
| 1777804072 | 19.44° C | 52% | 1017.3 hPa | 0 mm | 55.43 m/s, ° | 124 W/m² | - |
| 1777803772 | 19.44° C | 53% | 1017.5 hPa | 0 mm | 58.56 m/s, ° | 131 W/m² | - |
| 1777803472 | 19.44° C | 54% | 1017.2 hPa | 0 mm | 44.26 m/s, ° | 99 W/m² | - |
| 1777803172 | 19.44° C | 55% | 1017.1 hPa | 0 mm | 42.47 m/s, ° | 95 W/m² | - |
| 1777802872 | 19.44° C | 56% | 1017.3 hPa | 0 mm | 40.23 m/s, ° | 90 W/m² | - |
| 1777802572 | 19.44° C | 55% | 1017.3 hPa | 0 mm | 41.57 m/s, ° | 93 W/m² | - |
| 1777802272 | 18.89° C | 53% | 1017.5 hPa | 0 mm | 39.79 m/s, ° | 89 W/m² | - |
| 1777801972 | 18.89° C | 53% | 1017.7 hPa | 0 mm | 53.2 m/s, ° | 119 W/m² | - |
| 1777801672 | 18.33° C | 56% | 1017.4 hPa | 0 mm | 52.3 m/s, ° | 117 W/m² | - |
| 1777801372 | 18.33° C | 53% | 1017.5 hPa | 0 mm | 52.3 m/s, ° | 117 W/m² | - |
| 1777801072 | 18.33° C | 53% | 1017.7 hPa | 0 mm | 42.02 m/s, ° | 94 W/m² | - |
| 1777800772 | 18.33° C | 55% | 1018 hPa | 0 mm | 37.55 m/s, ° | 84 W/m² | - |
| 1777800472 | 18.33° C | 54% | 1017.7 hPa | 0 mm | 33.98 m/s, ° | 76 W/m² | - |
| 1777800172 | 18.33° C | 55% | 1017.6 hPa | 0 mm | 35.32 m/s, ° | 79 W/m² | - |
| 1777799872 | 18.33° C | 55% | 1017.8 hPa | 0 mm | 33.08 m/s, ° | 74 W/m² | - |
| 1777799572 | 18.33° C | 55% | 1017.8 hPa | 0 mm | 28.16 m/s, ° | 63 W/m² | - |
| 1777799272 | 18.33° C | 58% | 1017.7 hPa | 0 mm | 24.14 m/s, ° | 54 W/m² | - |
| 1777798971 | 18.33° C | 53% | 1017.6 hPa | 0 mm | 34.42 m/s, ° | 77 W/m² | - |
| 1777798671 | 18.33° C | 55% | 1017.7 hPa | 0 mm | 40.23 m/s, ° | 90 W/m² | - |
* Rain latest hour (hover to see other rain measurements)
** Current wind speed in m/s (hover to see current wind gust speed)